Flag for Greece Weather past 2 weeks in Volos, Greece

Now
84 °F

Scattered clouds.


Feels Like: 90 °F
Forecast: 74 / 89 °F
Wind: N/A

Location: Skiathos Island

Current Time: Aug 1, 2015 at 9:55:25 AM

Latest Report: Aug 1, 2015 at 8:50 AM


Visibility: N/A

Pressure: 29.92 "Hg

Humidity: 66%

Dew point: 72 °F

Location of VolosLocation

Historic Weather in Volos — Graph

°F

Volos temperature yesterday

Maximum temperature yesterday: 90 °F (at 11:50 AM)
Minimum temperature yesterday: 79 °F (at 4:50 AM)
Average temperature yesterday: 86 °F

Past Weeks' High & Low Weather Summary

 TemperatureHumidityPressure
High91 °F (Jul 21, 5:50 PM)89% (Jul 29, 9:50 AM)30.09 "Hg (Jul 29, 9:50 AM)
Low70 °F (Jul 25, 4:50 AM)38% (Jul 18, 6:50 PM)29.68 "Hg (Jul 27, 6:50 PM)
Average83 °F63%29.84 "Hg
* Reported Jul 17 7:50 AM — Aug 1 7:50 AM, Volos, Weather by CustomWeather, © 2015

Note: Actual official high and low records may vary slightly from our data, if they occured in-between our weather recording intervals... More about our weather records

Advertising

Volos weather history for previous 24 hours

 ConditionsComfort  
Time TempWeatherWind HumidityBarometerVisibility
7:50 AM
Sat, Aug 1
84 °FScattered clouds.N/A66%29.89 "HgN/A
6:50 AM82 °FClear.N/A70%29.86 "Hg10 mi
5:50 AM82 °FClear.N/A70%29.86 "Hg10 mi
4:50 AM82 °FClear.6 mph79%29.86 "Hg10 mi
9:50 PM
Fri, Jul 31
82 °FClear.N/A51%29.77 "Hg10 mi
8:50 PM84 °FScattered clouds.N/A51%29.77 "HgN/A
7:50 PM88 °FPartly sunny.N/A43%29.77 "HgN/A
6:50 PM88 °FPartly sunny.N/A46%29.77 "HgN/A
5:50 PM88 °FScattered clouds.N/A49%29.77 "HgN/A
4:50 PM88 °FPassing clouds.N/A55%29.77 "HgN/A
3:50 PM88 °FPassing clouds.N/A55%29.77 "HgN/A
2:50 PM88 °FPassing clouds.N/A55%29.77 "HgN/A
1:50 PM88 °FPassing clouds.N/A62%29.77 "HgN/A
12:50 PM90 °FSunny.N/A59%29.77 "Hg10 mi
11:50 AM90 °FSunny.N/A59%29.74 "Hg10 mi
10:50 AM88 °FPassing clouds.N/A62%29.74 "HgN/A
9:50 AM86 °FScattered clouds.N/A79%29.74 "HgN/A
Weather by CustomWeather, © 2015

See weather overviewHow to use our weather pages